Location: Zagreb
(45.8000°N, 16.0000°E)
Time: 20:01:33
(UTC+02:00)

A-11 Canister half - Pass Details

Date: 18 August 2022
Orbit: 1524 x 1684 km, 47.3° (Epoch: 05 October)

Event Time Altitude Azimuth Distance (km) Brightness Sun altitude
Rises 08:11:50 0° 278° (W) 4,930 11.1 21.8°
Reaches altitude 10° 08:14:59 10° 279° (W) 3,948 10.6 22.4°
Maximum altitude 08:25:14 85° 9° (N) 1,690 9.7 24.2°
Drops below altitude 10° 08:35:21 10° 99° (E) 3,904 13.0 25.9°
Sets 08:38:28 0° 100° (E) 4,874 13.0 26.4°
